Time,TemperatureF,DewpointF,PressureIn,WindDirection,WindDirectionDegrees,WindSpeedMPH,WindSpeedGustMPH,Humidity,HourlyPrecipIn,Conditions,Clouds,dailyrainin,SoftwareType,DateUTC
2013-09-27 00:05:00,79.3,74.7,29.93,ENE,59,21.0,24.0,86,0.00,,,0.00,Wunderground v.1.15,2013-09-27 04:05:00,
2013-09-27 00:10:00,79.3,74.4,29.93,East,86,22.0,22.0,85,0.00,,,0.00,Wunderground v.1.15,2013-09-27 04:10:00,
2013-09-27 00:15:00,79.1,74.2,29.93,ENE,71,20.0,22.0,85,0.00,,,0.00,Wunderground v.1.15,2013-09-27 04:15:00,
2013-09-27 00:20:00,78.9,73.7,29.93,East,81,21.0,21.0,84,0.00,,,0.00,Wunderground v.1.15,2013-09-27 04:20:00,
2013-09-27 00:25:00,78.9,73.3,29.93,East,86,20.0,22.0,83,0.00,,,0.00,Wunderground v.1.15,2013-09-27 04:25:00,
2013-09-27 00:35:00,78.8,72.8,29.93,East,97,19.0,22.0,82,0.00,,,0.00,Wunderground v.1.15,2013-09-27 04:35:00,
2013-09-27 00:40:00,78.9,73.3,29.93,East,91,19.0,22.0,83,0.00,,,0.00,Wunderground v.1.15,2013-09-27 04:40:00,
2013-09-27 00:45:00,78.8,73.2,29.93,East,101,19.0,22.0,83,0.00,,,0.00,Wunderground v.1.15,2013-09-27 04:45:00,
2013-09-27 00:50:00,78.9,73.3,29.93,East,82,19.0,19.0,83,0.00,,,0.00,Wunderground v.1.15,2013-09-27 04:50:00,
2013-09-27 00:55:00,78.8,73.2,29.93,East,86,18.0,19.0,83,0.00,,,0.00,Wunderground v.1.15,2013-09-27 04:55:00,
2013-09-27 01:00:00,78.8,73.6,29.93,East,84,16.0,17.0,84,0.00,,,0.00,Wunderground v.1.15,2013-09-27 05:00:00,
2013-09-27 01:10:00,78.5,72.9,29.93,East,96,17.0,20.0,83,0.00,,,0.00,Wunderground v.1.15,2013-09-27 05:10:00,
2013-09-27 01:20:00,78.5,72.9,29.93,East,94,18.0,18.0,83,0.00,,,0.00,Wunderground v.1.15,2013-09-27 05:20:00,
2013-09-27 01:25:00,78.4,72.8,29.93,East,80,15.0,18.0,83,0.00,,,0.00,Wunderground v.1.15,2013-09-27 05:25:00,
2013-09-27 01:35:00,78.3,72.3,29.93,East,85,16.0,17.0,82,0.00,,,0.00,Wunderground v.1.15,2013-09-27 05:35:00,
2013-09-27 01:40:00,78.3,72.7,29.93,East,90,17.0,17.0,83,0.00,,,0.00,Wunderground v.1.15,2013-09-27 05:40:00,
2013-09-27 01:45:00,78.3,72.7,29.93,ENE,72,16.0,17.0,83,0.00,,,0.00,Wunderground v.1.15,2013-09-27 05:45:00,
2013-09-27 01:55:00,78.3,72.7,29.93,ENE,72,16.0,16.0,83,0.00,,,0.00,Wunderground v.1.15,2013-09-27 05:55:00,
2013-09-27 02:00:00,78.3,72.7,29.93,East,80,16.0,17.0,83,0.00,,,0.00,Wunderground v.1.15,2013-09-27 06:00:00,
2013-09-27 02:10:00,78.2,72.6,29.93,East,86,15.0,15.0,83,0.00,,,0.00,Wunderground v.1.15,2013-09-27 06:10:00,
2013-09-27 02:15:00,78.0,72.4,29.93,East,86,14.0,15.0,83,0.00,,,0.00,Wunderground v.1.15,2013-09-27 06:15:00,
2013-09-27 02:20:00,77.9,72.3,29.93,East,84,14.0,18.0,83,0.00,,,0.00,Wunderground v.1.15,2013-09-27 06:20:00,
2013-09-27 02:30:00,77.8,72.2,29.93,East,101,14.0,14.0,83,0.00,,,0.00,Wunderground v.1.15,2013-09-27 06:30:00,
2013-09-27 02:35:00,77.8,72.6,29.93,East,100,15.0,15.0,84,0.00,,,0.00,Wunderground v.1.15,2013-09-27 06:35:00,
2013-09-27 02:45:00,78.0,73.1,29.93,East,95,14.0,15.0,85,0.00,,,0.00,Wunderground v.1.15,2013-09-27 06:45:00,
2013-09-27 02:50:00,78.0,73.1,29.93,East,92,13.0,13.0,85,0.00,,,0.00,Wunderground v.1.15,2013-09-27 06:50:00,
2013-09-27 02:55:00,77.8,72.9,29.93,East,92,13.0,13.0,85,0.00,,,0.00,Wunderground v.1.15,2013-09-27 06:55:00,
2013-09-27 03:05:00,77.8,73.6,29.93,ENE,78,13.0,14.0,87,0.00,,,0.00,Wunderground v.1.15,2013-09-27 07:05:00,
2013-09-27 03:10:00,77.6,73.4,29.93,East,86,13.0,13.0,87,0.00,,,0.00,Wunderground v.1.15,2013-09-27 07:10:00,
2013-09-27 03:20:00,77.6,73.4,29.93,East,92,12.0,13.0,87,0.00,,,0.00,Wunderground v.1.15,2013-09-27 07:20:00,
2013-09-27 03:25:00,77.8,73.6,29.93,ENE,74,13.0,15.0,87,0.00,,,0.00,Wunderground v.1.15,2013-09-27 07:25:00,
2013-09-27 03:30:00,77.8,73.6,29.93,East,92,13.0,13.0,87,0.00,,,0.00,Wunderground v.1.15,2013-09-27 07:30:00,
2013-09-27 03:40:00,77.6,73.4,29.93,ENE,78,13.0,14.0,87,0.00,,,0.00,Wunderground v.1.15,2013-09-27 07:40:00,
2013-09-27 03:50:00,77.6,73.4,29.93,East,92,13.0,13.0,87,0.00,,,0.00,Wunderground v.1.15,2013-09-27 07:50:00,
2013-09-27 03:55:00,77.5,73.0,29.93,East,98,12.0,13.0,86,0.00,,,0.00,Wunderground v.1.15,2013-09-27 07:55:00,
2013-09-27 04:05:00,77.5,73.0,29.93,East,84,13.0,17.0,86,0.00,,,0.00,Wunderground v.1.15,2013-09-27 08:05:00,
2013-09-27 04:10:00,77.5,73.0,29.93,East,80,12.0,12.0,86,0.00,,,0.00,Wunderground v.1.15,2013-09-27 08:10:00,
2013-09-27 04:20:00,77.5,72.6,29.93,East,99,12.0,12.0,85,0.00,,,0.00,Wunderground v.1.15,2013-09-27 08:20:00,
2013-09-27 04:25:00,77.6,73.1,29.93,East,89,12.0,12.0,86,0.00,,,0.00,Wunderground v.1.15,2013-09-27 08:25:00,
2013-09-27 04:35:00,77.6,73.1,29.93,East,94,14.0,14.0,86,0.00,,,0.00,Wunderground v.1.15,2013-09-27 08:35:00,
2013-09-27 04:40:00,77.5,73.3,29.93,ESE,103,12.0,12.0,87,0.00,,,0.00,Wunderground v.1.15,2013-09-27 08:40:00,
2013-09-27 04:50:00,77.2,72.7,29.93,East,96,13.0,14.0,86,0.00,,,0.00,Wunderground v.1.15,2013-09-27 08:50:00,
2013-09-27 04:55:00,77.2,73.0,29.93,East,84,11.0,15.0,87,0.00,,,0.00,Wunderground v.1.15,2013-09-27 08:55:00,
2013-09-27 05:00:00,77.1,72.9,29.93,East,94,12.0,13.0,87,0.00,,,0.00,Wunderground v.1.15,2013-09-27 09:00:00,
2013-09-27 05:10:00,77.0,73.2,29.93,East,88,13.0,15.0,88,0.00,,,0.00,Wunderground v.1.15,2013-09-27 09:10:00,
2013-09-27 05:15:00,76.9,73.1,29.93,East,80,13.0,15.0,88,0.00,,,0.00,Wunderground v.1.15,2013-09-27 09:15:00,
2013-09-27 05:25:00,77.1,73.3,29.93,East,87,14.0,15.0,88,0.00,,,0.00,Wunderground v.1.15,2013-09-27 09:25:00,
2013-09-27 05:30:00,77.1,72.9,29.93,East,96,14.0,15.0,87,0.00,,,0.00,Wunderground v.1.15,2013-09-27 09:30:00,
2013-09-27 05:35:00,77.1,72.9,29.93,East,92,13.0,15.0,87,0.00,,,0.00,Wunderground v.1.15,2013-09-27 09:35:00,
2013-09-27 05:45:00,77.0,72.8,29.94,East,90,13.0,14.0,87,0.00,,,0.00,Wunderground v.1.15,2013-09-27 09:45:00,
2013-09-27 05:50:00,77.1,72.6,29.94,East,88,13.0,13.0,86,0.00,,,0.00,Wunderground v.1.15,2013-09-27 09:50:00,
2013-09-27 06:00:00,76.9,72.4,29.95,East,92,10.0,14.0,86,0.00,,,0.00,Wunderground v.1.15,2013-09-27 10:00:00,
2013-09-27 06:05:00,77.1,72.6,29.95,East,94,10.0,14.0,86,0.00,,,0.00,Wunderground v.1.15,2013-09-27 10:05:00,
2013-09-27 06:10:00,77.0,72.1,29.95,ESE,107,10.0,10.0,85,0.00,,,0.00,Wunderground v.1.15,2013-09-27 10:10:00,
2013-09-27 06:20:00,77.1,72.2,29.95,East,94,11.0,12.0,85,0.00,,,0.00,Wunderground v.1.15,2013-09-27 10:20:00,
2013-09-27 06:30:00,77.2,72.3,29.95,ENE,74,13.0,14.0,85,0.00,,,0.00,Wunderground v.1.15,2013-09-27 10:30:00,
2013-09-27 06:35:00,77.1,72.6,29.95,ENE,78,14.0,17.0,86,0.00,,,0.00,Wunderground v.1.15,2013-09-27 10:35:00,
2013-09-27 06:45:00,77.0,72.5,29.96,East,82,14.0,14.0,86,0.00,,,0.00,Wunderground v.1.15,2013-09-27 10:45:00,
2013-09-27 06:50:00,76.8,72.6,29.96,ENE,67,15.0,17.0,87,0.00,,,0.00,Wunderground v.1.15,2013-09-27 10:50:00,
2013-09-27 06:55:00,76.7,72.5,29.96,East,84,15.0,17.0,87,0.00,,,0.00,Wunderground v.1.15,2013-09-27 10:55:00,
2013-09-27 07:05:00,76.5,72.0,29.96,East,83,15.0,17.0,86,0.00,,,0.00,Wunderground v.1.15,2013-09-27 11:05:00,
2013-09-27 07:10:00,76.7,73.2,29.96,ENE,69,17.0,19.0,89,0.00,,,0.00,Wunderground v.1.15,2013-09-27 11:10:00,
2013-09-27 07:20:00,76.4,71.9,29.97,ENE,75,19.0,19.0,86,0.00,,,0.00,Wunderground v.1.15,2013-09-27 11:20:00,
2013-09-27 07:25:00,76.4,71.9,29.97,ENE,69,18.0,19.0,86,0.00,,,0.00,Wunderground v.1.15,2013-09-27 11:25:00,
2013-09-27 07:35:00,76.1,71.3,29.97,ENE,65,19.0,23.0,85,0.00,,,0.00,Wunderground v.1.15,2013-09-27 11:35:00,
2013-09-27 07:40:00,76.2,71.7,29.98,ENE,67,19.0,20.0,86,0.00,,,0.00,Wunderground v.1.15,2013-09-27 11:40:00,
2013-09-27 07:50:00,76.0,70.8,29.98,ENE,71,19.0,20.0,84,0.00,,,0.00,Wunderground v.1.15,2013-09-27 11:50:00,
2013-09-27 07:55:00,76.1,71.3,29.98,East,80,20.0,20.0,85,0.00,,,0.00,Wunderground v.1.15,2013-09-27 11:55:00,
2013-09-27 08:05:00,76.0,71.2,29.99,ENE,65,20.0,23.0,85,0.00,,,0.00,Wunderground v.1.15,2013-09-27 12:05:00,
2013-09-27 08:10:00,75.8,71.3,29.98,East,86,20.0,20.0,86,0.00,,,0.00,Wunderground v.1.15,2013-09-27 12:10:00,
2013-09-27 08:20:00,75.7,71.6,29.99,East,80,20.0,20.0,87,0.00,,,0.00,Wunderground v.1.15,2013-09-27 12:20:00,
2013-09-27 08:25:00,75.5,71.0,29.99,ENE,76,20.0,20.0,86,0.00,,,0.00,Wunderground v.1.15,2013-09-27 12:25:00,
2013-09-27 08:35:00,75.5,71.4,30.00,East,84,19.0,21.0,87,0.00,,,0.00,Wunderground v.1.15,2013-09-27 12:35:00,
2013-09-27 08:40:00,75.3,70.5,30.00,East,91,17.0,17.0,85,0.00,,,0.00,Wunderground v.1.15,2013-09-27 12:40:00,
2013-09-27 08:45:00,75.5,70.7,30.00,East,83,16.0,17.0,85,0.00,,,0.00,Wunderground v.1.15,2013-09-27 12:45:00,
2013-09-27 08:55:00,75.4,70.6,30.01,ENE,66,19.0,19.0,85,0.00,,,0.00,Wunderground v.1.15,2013-09-27 12:55:00,
2013-09-27 09:00:00,75.3,70.5,30.01,ENE,77,19.0,19.0,85,0.00,,,0.00,Wunderground v.1.15,2013-09-27 13:00:00,
2013-09-27 09:10:00,75.2,70.0,30.00,ENE,62,20.0,24.0,84,0.00,,,0.00,Wunderground v.1.15,2013-09-27 13:10:00,
2013-09-27 09:20:00,74.9,69.7,30.01,ENE,67,22.0,22.0,84,0.00,,,0.00,Wunderground v.1.15,2013-09-27 13:20:00,
2013-09-27 09:25:00,74.7,70.2,30.01,ENE,77,22.0,22.0,86,0.00,,,0.00,Wunderground v.1.15,2013-09-27 13:25:00,
2013-09-27 09:35:00,74.6,70.1,30.01,ENE,63,21.0,22.0,86,0.00,,,0.00,Wunderground v.1.15,2013-09-27 13:35:00,
2013-09-27 09:40:00,74.6,70.1,30.01,ENE,70,21.0,21.0,86,0.00,,,0.00,Wunderground v.1.15,2013-09-27 13:40:00,
2013-09-27 09:50:00,74.9,70.1,30.02,ENE,71,19.0,19.0,85,0.00,,,0.00,Wunderground v.1.15,2013-09-27 13:50:00,
2013-09-27 09:55:00,74.8,70.0,30.02,East,83,19.0,19.0,85,0.00,,,0.00,Wunderground v.1.15,2013-09-27 13:55:00,
2013-09-27 10:05:00,74.8,70.0,30.02,ENE,76,18.0,19.0,85,0.00,,,0.00,Wunderground v.1.15,2013-09-27 14:05:00,
2013-09-27 10:10:00,74.8,70.3,30.02,ENE,67,17.0,20.0,86,0.00,,,0.00,Wunderground v.1.15,2013-09-27 14:10:00,
2013-09-27 10:20:00,74.6,70.5,30.02,ENE,67,19.0,19.0,87,0.00,,,0.00,Wunderground v.1.15,2013-09-27 14:20:00,
2013-09-27 10:25:00,74.7,70.6,30.02,ENE,73,20.0,20.0,87,0.00,,,0.00,Wunderground v.1.15,2013-09-27 14:25:00,
2013-09-27 10:30:00,75.0,70.9,30.02,ENE,67,19.0,19.0,87,0.00,,,0.00,Wunderground v.1.15,2013-09-27 14:30:00,
2013-09-27 10:35:00,75.1,71.0,30.02,East,84,18.0,20.0,87,0.00,,,0.00,Wunderground v.1.15,2013-09-27 14:35:00,
2013-09-27 10:40:00,75.0,70.9,30.02,East,86,18.0,18.0,87,0.00,,,0.00,Wunderground v.1.15,2013-09-27 14:40:00,
2013-09-27 10:50:00,75.0,70.5,30.02,ENE,74,17.0,17.0,86,0.00,,,0.00,Wunderground v.1.15,2013-09-27 14:50:00,
2013-09-27 10:55:00,75.1,71.0,30.03,ENE,70,18.0,18.0,87,0.00,,,0.00,Wunderground v.1.15,2013-09-27 14:55:00,
2013-09-27 11:05:00,75.1,70.3,30.03,ENE,67,17.0,18.0,85,0.00,,,0.00,Wunderground v.1.15,2013-09-27 15:05:00,
2013-09-27 11:10:00,75.2,70.7,30.03,ENE,67,16.0,19.0,86,0.00,,,0.00,Wunderground v.1.15,2013-09-27 15:10:00,
2013-09-27 11:20:00,75.1,70.3,30.03,ENE,71,18.0,20.0,85,0.00,,,0.00,Wunderground v.1.15,2013-09-27 15:20:00,
2013-09-27 11:25:00,75.4,70.6,30.03,East,91,17.0,20.0,85,0.00,,,0.00,Wunderground v.1.15,2013-09-27 15:25:00,
2013-09-27 11:35:00,75.4,70.6,30.03,East,80,15.0,16.0,85,0.00,,,0.00,Wunderground v.1.15,2013-09-27 15:35:00,
2013-09-27 11:40:00,75.4,70.2,30.03,ENE,71,15.0,15.0,84,0.00,,,0.00,Wunderground v.1.15,2013-09-27 15:40:00,
2013-09-27 11:50:00,75.7,70.5,30.03,ENE,75,15.0,15.0,84,0.00,,,0.00,Wunderground v.1.15,2013-09-27 15:50:00,
2013-09-27 11:55:00,75.8,71.0,30.03,ENE,61,14.0,15.0,85,0.00,,,0.00,Wunderground v.1.15,2013-09-27 15:55:00,
2013-09-27 12:05:00,75.9,71.1,30.03,ENE,59,14.0,16.0,85,0.00,,,0.00,Wunderground v.1.15,2013-09-27 16:05:00,
2013-09-27 12:10:00,76.1,71.3,30.03,ENE,65,14.0,18.0,85,0.00,,,0.00,Wunderground v.1.15,2013-09-27 16:10:00,
2013-09-27 12:20:00,76.2,70.7,30.03,East,84,13.0,13.0,83,0.00,,,0.00,Wunderground v.1.15,2013-09-27 16:20:00,
2013-09-27 12:25:00,76.3,71.1,30.03,ENE,73,13.0,13.0,84,0.00,,,0.00,Wunderground v.1.15,2013-09-27 16:25:00,
2013-09-27 12:35:00,76.3,70.8,30.03,ENE,71,13.0,14.0,83,0.00,,,0.00,Wunderground v.1.15,2013-09-27 16:35:00,
2013-09-27 12:40:00,76.4,70.5,30.03,NE,53,13.0,13.0,82,0.00,,,0.00,Wunderground v.1.15,2013-09-27 16:40:00,
2013-09-27 12:50:00,76.6,70.7,30.03,NE,53,13.0,13.0,82,0.00,,,0.00,Wunderground v.1.15,2013-09-27 16:50:00,
2013-09-27 12:55:00,76.8,70.9,30.02,ENE,76,13.0,14.0,82,0.00,,,0.00,Wunderground v.1.15,2013-09-27 16:55:00,
2013-09-27 13:05:00,76.7,70.4,30.03,ENE,65,12.0,15.0,81,0.00,,,0.00,Wunderground v.1.15,2013-09-27 17:05:00,
2013-09-27 13:10:00,77.0,70.4,30.02,ENE,65,12.0,14.0,80,0.00,,,0.00,Wunderground v.1.15,2013-09-27 17:10:00,
2013-09-27 13:15:00,77.2,70.5,30.02,ENE,76,12.0,14.0,80,0.00,,,0.00,Wunderground v.1.15,2013-09-27 17:15:00,
2013-09-27 13:25:00,77.2,70.5,30.02,ENE,63,11.0,12.0,80,0.00,,,0.00,Wunderground v.1.15,2013-09-27 17:25:00,
2013-09-27 13:30:00,77.4,70.4,30.02,ENE,67,11.0,11.0,79,0.00,,,0.00,Wunderground v.1.15,2013-09-27 17:30:00,
2013-09-27 13:40:00,77.1,69.3,30.01,ENE,67,12.0,12.0,77,0.00,,,0.00,Wunderground v.1.15,2013-09-27 17:40:00,
2013-09-27 13:45:00,77.3,69.9,30.01,ENE,68,12.0,12.0,78,0.00,,,0.00,Wunderground v.1.15,2013-09-27 17:45:00,
2013-09-27 13:50:00,77.4,69.6,30.01,ENE,63,10.0,10.0,77,0.00,,,0.00,Wunderground v.1.15,2013-09-27 17:50:00,
2013-09-27 14:00:00,77.6,69.8,30.01,ENE,64,10.0,12.0,77,0.00,,,0.00,Wunderground v.1.15,2013-09-27 18:00:00,
2013-09-27 14:05:00,77.5,69.3,30.01,ENE,63,11.0,12.0,76,0.00,,,0.00,Wunderground v.1.15,2013-09-27 18:05:00,
2013-09-27 14:15:00,77.8,68.8,30.00,East,89,9.0,10.0,74,0.00,,,0.00,Wunderground v.1.15,2013-09-27 18:15:00,
2013-09-27 14:20:00,77.8,69.2,30.00,ENE,65,10.0,10.0,75,0.00,,,0.00,Wunderground v.1.15,2013-09-27 18:20:00,
2013-09-27 14:30:00,77.8,69.6,30.00,ESE,104,9.0,9.0,76,0.00,,,0.00,Wunderground v.1.15,2013-09-27 18:30:00,
2013-09-27 14:35:00,77.8,69.2,30.00,ESE,119,6.0,9.0,75,0.00,,,0.00,Wunderground v.1.15,2013-09-27 18:35:00,
2013-09-27 14:40:00,77.9,69.3,30.00,East,97,6.0,6.0,75,0.00,,,0.00,Wunderground v.1.15,2013-09-27 18:40:00,
2013-09-27 14:50:00,78.0,69.4,29.99,SE,125,3.0,8.0,75,0.00,,,0.00,Wunderground v.1.15,2013-09-27 18:50:00,
2013-09-27 14:55:00,78.0,69.4,29.99,SE,130,5.0,8.0,75,0.00,,,0.00,Wunderground v.1.15,2013-09-27 18:55:00,
2013-09-27 15:05:00,78.0,69.0,29.99,East,90,7.0,7.0,74,0.00,,,0.00,Wunderground v.1.15,2013-09-27 19:05:00,
2013-09-27 15:10:00,78.0,69.0,29.99,SE,128,5.0,5.0,74,0.00,,,0.00,Wunderground v.1.15,2013-09-27 19:10:00,
2013-09-27 15:20:00,78.1,69.1,29.99,ENE,74,7.0,8.0,74,0.00,,,0.00,Wunderground v.1.15,2013-09-27 19:20:00,
2013-09-27 15:25:00,78.0,69.0,29.98,ENE,60,6.0,8.0,74,0.00,,,0.00,Wunderground v.1.15,2013-09-27 19:25:00,
2013-09-27 15:35:00,78.1,69.5,29.98,ESE,109,3.0,6.0,75,0.00,,,0.00,Wunderground v.1.15,2013-09-27 19:35:00,
2013-09-27 15:40:00,78.5,69.5,29.98,SE,124,5.0,11.0,74,0.00,,,0.00,Wunderground v.1.15,2013-09-27 19:40:00,
2013-09-27 15:45:00,78.5,69.9,29.98,SE,127,8.0,11.0,75,0.00,,,0.00,Wunderground v.1.15,2013-09-27 19:45:00,
2013-09-27 15:50:00,78.5,69.5,29.98,South,184,7.0,7.0,74,0.00,,,0.00,Wunderground v.1.15,2013-09-27 19:50:00,
2013-09-27 15:55:00,79.0,69.6,29.98,SE,127,5.0,7.0,73,0.00,,,0.00,Wunderground v.1.15,2013-09-27 19:55:00,
2013-09-27 16:05:00,79.0,68.8,29.98,ESE,117,5.0,5.0,71,0.00,,,0.00,Wunderground v.1.15,2013-09-27 20:05:00,
2013-09-27 16:10:00,78.7,68.9,29.97,SE,137,5.0,5.0,72,0.00,,,0.00,Wunderground v.1.15,2013-09-27 20:10:00,
2013-09-27 16:20:00,78.9,69.9,29.98,East,93,4.0,7.0,74,0.00,,,0.00,Wunderground v.1.15,2013-09-27 20:20:00,
2013-09-27 16:25:00,78.6,69.2,29.97,East,98,5.0,7.0,73,0.00,,,0.00,Wunderground v.1.15,2013-09-27 20:25:00,
2013-09-27 16:35:00,79.0,69.6,29.97,SE,130,4.0,5.0,73,0.00,,,0.00,Wunderground v.1.15,2013-09-27 20:35:00,
2013-09-27 16:40:00,79.0,69.6,29.97,ESE,111,1.0,7.0,73,0.00,,,0.00,Wunderground v.1.15,2013-09-27 20:40:00,
2013-09-27 16:50:00,79.1,69.7,29.97,SSE,161,3.0,5.0,73,0.00,,,0.00,Wunderground v.1.15,2013-09-27 20:50:00,
2013-09-27 16:55:00,79.2,69.8,29.97,ESE,108,4.0,7.0,73,0.00,,,0.00,Wunderground v.1.15,2013-09-27 20:55:00,
2013-09-27 17:05:00,79.4,69.6,29.97,East,82,1.0,4.0,72,0.00,,,0.00,Wunderground v.1.15,2013-09-27 21:05:00,
2013-09-27 17:10:00,79.1,69.3,29.97,East,82,0.0,0.0,72,0.00,,,0.00,Wunderground v.1.15,2013-09-27 21:10:00,
2013-09-27 17:20:00,78.9,69.5,29.97,SE,127,4.0,5.0,73,0.00,,,0.00,Wunderground v.1.15,2013-09-27 21:20:00,
2013-09-27 17:25:00,79.1,69.7,29.97,SSE,150,5.0,6.0,73,0.00,,,0.00,Wunderground v.1.15,2013-09-27 21:25:00,
2013-09-27 17:35:00,79.5,70.1,29.97,SSE,147,5.0,9.0,73,0.00,,,0.00,Wunderground v.1.15,2013-09-27 21:35:00,
2013-09-27 17:40:00,79.2,69.8,29.97,SE,134,6.0,7.0,73,0.00,,,0.00,Wunderground v.1.15,2013-09-27 21:40:00,
2013-09-27 17:50:00,79.4,70.4,29.97,SSE,156,5.0,5.0,74,0.00,,,0.00,Wunderground v.1.15,2013-09-27 21:50:00,
2013-09-27 17:55:00,79.2,70.2,29.97,South,170,4.0,6.0,74,0.00,,,0.00,Wunderground v.1.15,2013-09-27 21:55:00,
2013-09-27 18:05:00,79.1,70.1,29.97,SE,131,7.0,11.0,74,0.00,,,0.00,Wunderground v.1.15,2013-09-27 22:05:00,
2013-09-27 18:10:00,78.9,69.5,29.97,SE,134,7.0,7.0,73,0.00,,,0.00,Wunderground v.1.15,2013-09-27 22:10:00,
2013-09-27 18:20:00,78.9,69.5,29.97,SE,132,6.0,9.0,73,0.00,,,0.00,Wunderground v.1.15,2013-09-27 22:20:00,
2013-09-27 18:25:00,78.9,69.9,29.97,SE,126,6.0,9.0,74,0.00,,,0.00,Wunderground v.1.15,2013-09-27 22:25:00,
2013-09-27 18:35:00,78.8,69.8,29.97,ESE,121,6.0,7.0,74,0.00,,,0.00,Wunderground v.1.15,2013-09-27 22:35:00,
2013-09-27 18:40:00,78.7,69.7,29.97,SE,136,7.0,7.0,74,0.00,,,0.00,Wunderground v.1.15,2013-09-27 22:40:00,
2013-09-27 18:50:00,78.5,69.9,29.97,South,178,6.0,6.0,75,0.00,,,0.00,Wunderground v.1.15,2013-09-27 22:50:00,
2013-09-27 18:55:00,78.5,70.3,29.97,SE,134,5.0,6.0,76,0.00,,,0.00,Wunderground v.1.15,2013-09-27 22:55:00,
2013-09-27 19:05:00,78.5,70.3,29.97,ESE,123,6.0,6.0,76,0.00,,,0.00,Wunderground v.1.15,2013-09-27 23:05:00,
2013-09-27 19:10:00,78.6,70.4,29.98,SE,128,6.0,6.0,76,0.00,,,0.00,Wunderground v.1.15,2013-09-27 23:10:00,
2013-09-27 19:20:00,78.5,70.3,29.98,SSE,157,6.0,6.0,76,0.00,,,0.00,Wunderground v.1.15,2013-09-27 23:20:00,
2013-09-27 19:25:00,78.4,69.8,29.98,ESE,122,6.0,7.0,75,0.00,,,0.00,Wunderground v.1.15,2013-09-27 23:25:00,
2013-09-27 19:30:00,78.4,70.2,29.98,SSE,153,6.0,6.0,76,0.00,,,0.00,Wunderground v.1.15,2013-09-27 23:30:00,
2013-09-27 19:35:00,78.3,70.1,29.98,SE,137,5.0,6.0,76,0.00,,,0.00,Wunderground v.1.15,2013-09-27 23:35:00,
2013-09-27 19:40:00,78.2,70.0,29.98,SE,132,6.0,6.0,76,0.00,,,0.00,Wunderground v.1.15,2013-09-27 23:40:00,
2013-09-27 19:50:00,78.2,69.6,29.98,SSE,150,5.0,5.0,75,0.00,,,0.00,Wunderground v.1.15,2013-09-27 23:50:00,
2013-09-27 19:55:00,78.2,70.0,29.97,SE,130,3.0,5.0,76,0.00,,,0.00,Wunderground v.1.15,2013-09-27 23:55:00,
2013-09-27 20:05:00,78.2,70.4,29.98,SE,134,0.0,0.0,77,0.00,,,0.00,Wunderground v.1.15,2013-09-28 00:05:00,
2013-09-27 20:10:00,78.2,70.4,29.98,SE,125,0.0,0.0,77,0.00,,,0.00,Wunderground v.1.15,2013-09-28 00:10:00,
2013-09-27 20:20:00,77.9,70.5,29.98,SE,128,0.0,0.0,78,0.00,,,0.00,Wunderground v.1.15,2013-09-28 00:20:00,
2013-09-27 20:25:00,77.8,70.4,29.98,SE,128,0.0,0.0,78,0.00,,,0.00,Wunderground v.1.15,2013-09-28 00:25:00,
2013-09-27 20:35:00,77.5,70.5,29.98,ESE,123,0.0,0.0,79,0.00,,,0.00,Wunderground v.1.15,2013-09-28 00:35:00,
2013-09-27 20:40:00,77.5,70.5,29.99,ESE,123,0.0,0.0,79,0.00,,,0.00,Wunderground v.1.15,2013-09-28 00:40:00,
2013-09-27 20:50:00,77.5,70.8,29.99,ESE,123,0.0,0.0,80,0.00,,,0.00,Wunderground v.1.15,2013-09-28 00:50:00,
2013-09-27 20:55:00,77.4,70.4,29.99,ESE,123,0.0,0.0,79,0.00,,,0.00,Wunderground v.1.15,2013-09-28 00:55:00,
2013-09-27 21:00:00,77.3,70.3,29.99,ESE,123,0.0,0.0,79,0.00,,,0.00,Wunderground v.1.15,2013-09-28 01:00:00,
2013-09-27 21:10:00,77.4,70.4,29.99,ESE,123,0.0,0.0,79,0.00,,,0.00,Wunderground v.1.15,2013-09-28 01:10:00,
2013-09-27 21:15:00,77.5,70.8,30.00,ESE,123,0.0,0.0,80,0.00,,,0.00,Wunderground v.1.15,2013-09-28 01:15:00,
2013-09-27 21:25:00,77.4,70.7,30.00,ESE,123,0.0,0.0,80,0.00,,,0.00,Wunderground v.1.15,2013-09-28 01:25:00,
2013-09-27 21:30:00,77.3,71.0,30.00,ESE,112,0.0,0.0,81,0.00,,,0.00,Wunderground v.1.15,2013-09-28 01:30:00,
2013-09-27 21:35:00,77.2,70.9,30.00,ESE,111,0.0,0.0,81,0.00,,,0.00,Wunderground v.1.15,2013-09-28 01:35:00,
2013-09-27 21:40:00,77.2,70.9,30.00,ESE,111,0.0,0.0,81,0.00,,,0.00,Wunderground v.1.15,2013-09-28 01:40:00,
2013-09-27 21:50:00,77.1,70.8,30.01,ESE,113,0.0,0.0,81,0.00,,,0.00,Wunderground v.1.15,2013-09-28 01:50:00,
2013-09-27 22:00:00,77.1,70.8,30.01,ESE,103,0.0,0.0,81,0.00,,,0.00,Wunderground v.1.15,2013-09-28 02:00:00,
2013-09-27 22:05:00,77.1,70.5,30.01,East,99,0.0,0.0,80,0.00,,,0.00,Wunderground v.1.15,2013-09-28 02:05:00,
2013-09-27 22:15:00,77.3,70.6,30.01,ESE,111,3.0,5.0,80,0.00,,,0.00,Wunderground v.1.15,2013-09-28 02:15:00,
2013-09-27 22:20:00,77.3,70.6,30.02,East,96,4.0,6.0,80,0.00,,,0.00,Wunderground v.1.15,2013-09-28 02:20:00,
2013-09-27 22:25:00,77.3,70.6,30.02,East,96,5.0,6.0,80,0.00,,,0.00,Wunderground v.1.15,2013-09-28 02:25:00,
2013-09-27 22:35:00,77.2,70.5,30.02,East,99,4.0,5.0,80,0.00,,,0.00,Wunderground v.1.15,2013-09-28 02:35:00,
2013-09-27 22:40:00,77.2,70.5,30.02,East,98,4.0,4.0,80,0.00,,,0.00,Wunderground v.1.15,2013-09-28 02:40:00,
2013-09-27 22:50:00,77.3,70.6,30.02,ESE,104,5.0,6.0,80,0.00,,,0.00,Wunderground v.1.15,2013-09-28 02:50:00,
2013-09-27 22:55:00,77.5,70.5,30.02,East,96,5.0,6.0,79,0.00,,,0.00,Wunderground v.1.15,2013-09-28 02:55:00,
2013-09-27 23:05:00,78.2,70.8,30.02,East,80,6.0,10.0,78,0.00,,,0.00,Wunderground v.1.15,2013-09-28 03:05:00,
2013-09-27 23:10:00,78.7,70.9,30.02,ENE,74,8.0,8.0,77,0.00,,,0.00,Wunderground v.1.15,2013-09-28 03:10:00,
2013-09-27 23:20:00,78.2,70.8,30.02,East,87,7.0,8.0,78,0.00,,,0.00,Wunderground v.1.15,2013-09-28 03:20:00,
2013-09-27 23:25:00,78.7,70.9,30.02,East,100,7.0,8.0,77,0.00,,,0.00,Wunderground v.1.15,2013-09-28 03:25:00,
2013-09-27 23:35:00,78.7,70.5,30.02,East,84,6.0,7.0,76,0.00,,,0.00,Wunderground v.1.15,2013-09-28 03:35:00,
2013-09-27 23:40:00,78.5,70.7,30.02,East,80,6.0,6.0,77,0.00,,,0.00,Wunderground v.1.15,2013-09-28 03:40:00,
2013-09-27 23:50:00,78.6,70.4,30.02,East,91,9.0,9.0,76,0.00,,,0.00,Wunderground v.1.15,2013-09-28 03:50:00,
2013-09-27 23:55:00,78.9,71.1,30.02,ENE,70,10.0,10.0,77,0.00,,,0.00,Wunderground v.1.15,2013-09-28 03:55:00,